This is the latest recevied weather packets stored in our database for station/object KN6CW-3. If no packets are shown the sender has not sent any weather packets the latest 10 day(s).
| Time | Temp. | Humidity | Pressure | Rain* | Wind** | Luminosity | Snow |
|---|---|---|---|---|---|---|---|
| 1778167922 | 11.67° C | 51% | 1011.3 hPa | 0 mm | - | 900 W/m² | - |
| 1778167622 | 11.11° C | 51% | 1011.4 hPa | 0 mm | - | 888 W/m² | - |
| 1778167321 | 11.11° C | 52% | 1011.6 hPa | 0 mm | - | 882 W/m² | - |
| 1778167021 | 11.11° C | 52% | 1011.7 hPa | 0 mm | - | 874 W/m² | - |
| 1778166721 | 11.11° C | 55% | 1011.7 hPa | 0 mm | - | 863 W/m² | - |
| 1778166420 | 11.11° C | 52% | 1011.8 hPa | 0 mm | - | 856 W/m² | - |
| 1778166120 | 10.56° C | 54% | 1011.8 hPa | 0 mm | - | 847 W/m² | - |
| 1778165820 | 10.56° C | 53% | 1011.8 hPa | 0 mm | - | 837 W/m² | - |
| 1778165520 | 10.56° C | 55% | 1012 hPa | 0 mm | - | 731 W/m² | - |
| 1778165222 | 10.56° C | 57% | 1011.9 hPa | 0 mm | - | 817 W/m² | - |
| 1778164919 | 10° C | 54% | 1012 hPa | 0 mm | - | 807 W/m² | - |
| 1778164619 | 10° C | 56% | 1012 hPa | 0 mm | - | 796 W/m² | - |
| 1778164318 | 10° C | 60% | 1011.9 hPa | 0 mm | - | 786 W/m² | - |
| 1778164018 | 10° C | 57% | 1012 hPa | 0 mm | - | 779 W/m² | - |
| 1778163718 | 10° C | 58% | 1012 hPa | 0 mm | - | 766 W/m² | - |
| 1778163418 | 10° C | 58% | 1012 hPa | 0 mm | - | 756 W/m² | - |
| 1778163117 | 10° C | 64% | 1012 hPa | 0 mm | - | 742 W/m² | - |
| 1778162817 | 9.44° C | 63% | 1012 hPa | 0 mm | - | 729 W/m² | - |
| 1778162517 | 9.44° C | 65% | 1012 hPa | 0 mm | - | 717 W/m² | - |
| 1778162216 | 8.89° C | 64% | 1012 hPa | 0 mm | - | 703 W/m² | - |
| 1778161916 | 8.89° C | 65% | 1012.1 hPa | 0 mm | - | 691 W/m² | - |
| 1778161616 | 8.89° C | 64% | 1012.1 hPa | 0 mm | - | 677 W/m² | - |
| 1778161316 | 8.89° C | 66% | 1012.1 hPa | 0 mm | - | 666 W/m² | - |
| 1778161015 | 8.89° C | 65% | 1012.1 hPa | 0 mm | - | 650 W/m² | - |
| 1778160716 | 8.89° C | 66% | 1012.1 hPa | 0 mm | - | 635 W/m² | - |
* Rain latest hour (hover to see other rain measurements)
** Current wind speed in m/s (hover to see current wind gust speed)